Weather History for KRVS - June, 2014

Change the Weather History Date:

Monday, June 2, 2014

  Actual Average (KTUL) Record (KTUL)
Temperature  
Mean Temperature 78 °F 74 °F  
Max Temperature 90 °F 84 °F 102 °F (1911)
Min Temperature 66 °F 64 °F 49 °F (1907)
Cooling Degree Days 12 9  
Month to date cooling degree days 18  
Year to date cooling degree days 252  
Since 1 June cooling degree days 18  
Growing Degree Days 28 (Base 50)    
Moisture  
Dew Point 70 °F    
Average Humidity 83    
Maximum Humidity 100    
Minimum Humidity 57    
Precipitation  
Precipitation 1.50 in 0.19 in 2.14 in (1973)
Month to date precipitation 0.37  
Year to date precipitation 16.87  
Sea Level Pressure  
Sea Level Pressure 29.97 in    
Wind  
Wind Speed 6 mph (SE)    
Max Wind Speed 12 mph    
Max Gust Speed 20 mph    
Visibility 8 miles    
Events Rain , Thunderstorm    
T = Trace of Precipitation, MM = Missing Value Source: NWS Daily Summary

Daily Weather History Graph

Daily Weather History Graph

Search for Another Location

Airport or City:

Trip Planner

Search our weather history database for the weather conditions in past years. The results will help you decide how hot, cold, wet, or windy it might be!

Date:

Astronomy

Jun. 02, 2014 Rise Set
Actual Time 6:08 AM CDT 8:36 PM CDT
Civil Twilight 5:38 AM CDT 9:05 PM CDT
Nautical Twilight 5:01 AM CDT 9:42 PM CDT
Astronomical Twilight 4:21 AM CDT 10:23 PM CDT
Moon 10:31 AM CDT (6/2) No Moon Set
Length of Visible Light 15h 27m
Length of Day
14h 27m
Waxing Crescent, 22% of the Moon is Illuminated
Jun 2
Waxing Crescent
Jun 5
First Quarter
Jun 12
Full
Jun 19
Last Quarter
Jun 27
New

Hourly Weather History & Observations

Time (CDT) Temp. Heat Index Dew Point Humidity Pressure Visibility Wind Dir Wind Speed Gust Speed Precip Events Conditions
12:53 AM 77.0 °F - 70.0 °F 79% 29.88 in 10.0 mi SSE 4.6 mph - N/A   Clear
1:53 AM 75.9 °F - 70.0 °F 82% 29.94 in 10.0 mi Calm Calm - N/A   Overcast
2:53 AM 75.9 °F - 70.0 °F 82% 29.94 in 10.0 mi SE 4.6 mph - 0.00 in Rain Light Rain
3:35 AM 73.4 °F - 71.6 °F 94% 29.93 in 10.0 mi NNE 4.6 mph - 0.02 in Rain , Thunderstorm Light Rain
3:50 AM 73.4 °F - 69.8 °F 88% 29.93 in 9.0 mi North 10.4 mph 18.4 mph 0.04 in Rain , Thunderstorm Light Rain
3:53 AM 71.1 °F - 69.1 °F 93% 29.95 in 9.0 mi North 10.4 mph 18.4 mph 0.04 in Rain , Thunderstorm Light Rain
4:11 AM 69.8 °F - 68.0 °F 94% 29.96 in 5.0 mi NNW 5.8 mph - 0.06 in Rain , Thunderstorm Thunderstorms and Rain
4:21 AM 69.8 °F - 68.0 °F 94% 29.96 in 1.8 mi North 5.8 mph - 0.37 in Rain , Thunderstorm Heavy Rain
4:31 AM 69.8 °F - 68.0 °F 94% 29.97 in 2.0 mi NE 8.1 mph - 0.48 in Rain , Thunderstorm Heavy Rain
4:34 AM 69.8 °F - 68.0 °F 94% 29.97 in 3.0 mi NE 8.1 mph - 0.50 in Rain , Thunderstorm Rain
4:53 AM 68.0 °F - 66.9 °F 96% 29.99 in 5.0 mi NNE 9.2 mph - 0.63 in Rain , Thunderstorm Thunderstorms and Rain
4:58 AM 68.0 °F - 66.2 °F 94% 29.99 in 6.0 mi NNE 6.9 mph - 0.02 in Rain , Thunderstorm Thunderstorms and Rain
5:11 AM 68.0 °F - 66.2 °F 94% 29.99 in 2.5 mi North 4.6 mph - 0.18 in Rain , Thunderstorm Heavy Rain
5:21 AM 68.0 °F - 66.2 °F 94% 29.98 in 3.0 mi NNE 4.6 mph - 0.24 in Rain , Thunderstorm Heavy Rain
5:53 AM 66.9 °F - 66.9 °F 100% 30.01 in 3.0 mi East 3.5 mph - 0.44 in Rain , Thunderstorm Heavy Thunderstorms and Rain
6:00 AM 66.2 °F - 66.2 °F 100% 29.99 in 4.0 mi NE 3.5 mph - 0.03 in Rain , Thunderstorm Rain
6:11 AM 66.2 °F - 66.2 °F 100% 30.00 in 4.0 mi Calm Calm - 0.10 in Rain , Thunderstorm Heavy Rain
6:26 AM 68.0 °F - 66.2 °F 94% 30.00 in 3.0 mi South 6.9 mph - 0.19 in Rain Heavy Rain
6:37 AM 68.0 °F - 66.2 °F 94% 30.00 in 4.0 mi South 5.8 mph - 0.23 in Rain , Thunderstorm Rain
6:47 AM 68.0 °F - 66.2 °F 94% 30.00 in 3.0 mi South 9.2 mph - 0.29 in Rain Heavy Rain
6:53 AM 68.0 °F - 66.9 °F 96% 30.00 in 4.0 mi SSE 10.4 mph - 0.31 in Rain Rain
7:53 AM 66.9 °F - 64.9 °F 93% 29.98 in 10.0 mi South 10.4 mph - 0.08 in Rain Light Rain
8:53 AM 69.1 °F - 64.9 °F 87% 29.95 in 10.0 mi SSE 11.5 mph - 0.00 in   Clear
9:30 AM 71.6 °F - 66.2 °F 83% 29.96 in 10.0 mi SSE 11.5 mph 19.6 mph N/A   Mostly Cloudy
9:53 AM 73.9 °F - 68.0 °F 82% 29.98 in 10.0 mi SSE 10.4 mph 18.4 mph N/A   Mostly Cloudy
10:53 AM 75.9 °F - 69.1 °F 79% 29.99 in 10.0 mi South 9.2 mph 18.4 mph N/A   Overcast
1:09 PM 82.4 °F 88.2 °F 73.4 °F 74% 29.97 in 10.0 mi Variable 5.8 mph - N/A   Mostly Cloudy
1:22 PM 82.4 °F 88.2 °F 73.4 °F 74% 29.97 in 10.0 mi South 3.5 mph - N/A   Mostly Cloudy
1:53 PM 84.0 °F 90.2 °F 73.0 °F 69% 29.97 in 10.0 mi Variable 4.6 mph - N/A   Overcast
2:20 PM 82.4 °F 88.2 °F 73.4 °F 74% 29.96 in 10.0 mi SSE 3.5 mph - N/A   Overcast
2:40 PM 84.2 °F 90.9 °F 73.4 °F 70% 29.95 in 10.0 mi Variable 5.8 mph - N/A   Mostly Cloudy
2:50 PM 84.2 °F 90.9 °F 73.4 °F 70% 29.95 in 10.0 mi SE 6.9 mph - N/A   Mostly Cloudy
2:53 PM 84.9 °F 92.1 °F 73.9 °F 69% 29.96 in 10.0 mi SE 6.9 mph - N/A   Mostly Cloudy
3:53 PM 89.1 °F 97.0 °F 73.0 °F 59% 29.95 in 10.0 mi SE 6.9 mph - N/A   Mostly Cloudy
4:53 PM 89.1 °F 96.0 °F 72.0 °F 57% 29.94 in 10.0 mi SSE 8.1 mph - N/A   Mostly Cloudy
5:53 PM 88.0 °F 93.8 °F 71.1 °F 57% 29.94 in 10.0 mi South 6.9 mph - N/A   Scattered Clouds
6:53 PM 86.0 °F 91.5 °F 71.1 °F 61% 29.94 in 10.0 mi South 9.2 mph - N/A   Clear
7:53 PM 84.0 °F 89.6 °F 72.0 °F 67% 29.95 in 10.0 mi SSE 6.9 mph - N/A   Clear
8:53 PM 82.0 °F 87.9 °F 73.9 °F 76% 29.98 in 10.0 mi SE 6.9 mph - N/A   Clear
9:53 PM 80.1 °F 84.5 °F 73.9 °F 81% 29.97 in 10.0 mi SSE 6.9 mph - N/A   Scattered Clouds
10:53 PM 79.0 °F - 73.0 °F 82% 30.00 in 10.0 mi SE 3.5 mph - N/A   Partly Cloudy
11:53 PM 78.1 °F - 73.0 °F 84% 30.01 in 10.0 mi SSE 4.6 mph - N/A   Clear